GW6587 Weather Reports


time (UTC)temp
C
wind
direction
speed
KPH
gust
KPH
rain 1hr
cm
rain 24hr
cm
rain mn
cm
humidity
%
barometer
mb
20260505140513 2 108 6.4 16.1 0.05 0.25 0.25 93 1015.0
20260505124926 2 206 3.2 6.4 0.05 0.20 0.20 93 1014.1
20260505124423 2 135 6.4 9.7 0.05 0.18 0.18 93 1014.0
20260505123919 2 63 3.2 14.5 0.13 0.18 0.18 93 1013.7
20260505123416 2 144 4.8 8.0 0.05 0.18 0.18 93 1013.6
20260505122911 2 99 4.8 8.0 0.05 0.18 0.18 93 1013.6
20260505122409 3 112 6.4 9.7 0.13 0.18 0.18 93 1013.7
20260505121906 3 100 4.8 9.7 0.05 0.15 0.15 93 1013.6
20260505121403 3 130 8.0 8.0 0.05 0.15 0.15 92 1013.4
20260505120859 3 186 1.6 9.7 0.18 0.15 0.15 92 1013.5
20260505120355 3 122 9.7 9.7 0.30 0.15 0.15 92 1013.1
20260505115854 3 135 4.8 11.3 0.23 0.13 0.13 92 1013.2
20260505115351 3 128 3.2 14.5 0.23 0.10 0.10 92 1013.2
20260505114849 4 113 8.0 9.7 0.23 0.08 0.08 92 1013.1
20260505114345 4 119 4.8 11.3 0.23 0.05 0.05 91 1012.9
20260505113842 4 115 4.8 9.7 0.13 0.03 0.03 91 1013.1
20260505113338 5 107 3.2 16.1 0.13 0.03 0.03 90 1012.9
20260505112834 5 106 4.8 9.7 0.05 0.00 0.00 90 1012.7
20260505112332 5 121 9.7 9.7 0.00 0.00 0.00 89 1012.9
20260505111827 5 108 4.8 8.0 0.00 0.00 0.00 89 1012.7
20260505111323 5 115 3.2 3.2 0.00 0.00 0.00 89 1012.5
20260505110819 5 103 6.4 17.7 0.00 0.00 0.00 88 1012.5
20260505110317 5 128 4.8 9.7 0.00 0.00 0.00 88 1012.3
20260505101751 6 135 9.7 14.5 0.00 0.00 0.00 85 1011.8
20260505101247 6 110 8.0 9.7 0.00 0.00 0.00 84 1011.6
20260505100743 6 111 11.3 12.9 0.00 0.00 0.00 84 1011.6
20260505100240 6 176 3.2 9.7 0.00 0.00 0.00 85 1011.6
20260505095735 6 124 9.7 11.3 0.00 0.00 0.00 85 1011.7
20260505095234 6 117 8.0 12.9 0.00 0.00 0.00 84 1011.5
20260505094729 6 124 4.8 9.7 0.00 0.00 0.00 83 1011.6
20260505094226 6 107 4.8 12.9 0.00 0.00 0.00 83 1011.6
20260505093722 7 153 3.2 14.5 0.00 0.00 0.00 84 1011.7
20260505093219 7 101 8.0 11.3 0.00 0.00 0.00 84 1011.8
20260505092716 7 117 8.0 9.7 0.00 0.00 0.00 84 1011.6
20260505092215 7 126 6.4 17.7 0.00 0.00 0.00 84 1011.8
20260505091712 7 118 6.4 9.7 0.00 0.00 0.00 85 1011.8
20260505091210 7 143 4.8 16.1 0.00 0.00 0.00 86 1011.7
20260505090707 7 116 3.2 6.4 0.00 0.00 0.00 88 1011.6
20260505090205 7 112 4.8 8.0 0.00 0.00 0.00 88 1011.6
20260505085702 7 107 3.2 8.0 0.00 0.00 0.00 88 1011.7
20260505085200 7 120 4.8 4.8 0.00 0.00 0.00 87 1011.7
20260505084657 7 138 3.2 6.4 0.00 0.00 0.00 85 1011.7
20260505084156 8 109 4.8 8.0 0.00 0.00 0.00 83 1011.8
20260505083653 8 101 4.8 8.0 0.00 0.00 0.00 82 1011.7
20260505083149 8 107 3.2 9.7 0.00 0.00 0.00 82 1011.8
20260505082645 8 116 4.8 4.8 0.00 0.00 0.00 82 1011.9
20260505082143 8 120 4.8 4.8 0.00 0.00 0.00 81 1012.1
20260505081638 8 105 3.2 6.4 0.00 0.00 0.00 81 1012.1
20260505081136 8 112 3.2 9.7 0.00 0.00 0.00 82 1011.8
20260505080633 8 106 3.2 9.7 0.00 0.00 0.00 83 1012.2
20260505080129 8 92 3.2 4.8 0.00 0.00 0.00 83 1011.9
20260505075625 8 92 3.2 6.4 0.00 0.00 0.00 82 1012.1
20260505075122 8 131 6.4 8.0 0.00 0.00 0.00 82 1012.1
20260505074619 8 128 4.8 8.0 0.00 0.00 0.00 81 1012.1
20260505074116 8 120 4.8 9.7 0.00 0.00 0.00 82 1012.1
20260505073614 8 88 3.2 12.9 0.00 0.00 0.00 83 1012.5
20260505073112 8 116 4.8 8.0 0.00 0.00 0.00 85 1012.3
20260505072607 8 117 4.8 6.4 0.00 0.00 0.00 84 1012.5
20260505072104 8 132 6.4 9.7 0.00 0.00 0.00 84 1012.3
20260505071559 8 124 4.8 4.8 0.00 0.00 0.00 84 1012.7
20260505071057 8 102 6.4 6.4 0.00 0.00 0.00 84 1012.7
20260505070554 8 126 4.8 6.4 0.00 0.00 0.00 83 1012.5
20260505070050 8 110 4.8 9.7 0.00 0.00 0.00 84 1012.4
20260505065546 8 151 6.4 8.0 0.00 0.00 0.00 84 1012.8
20260505065043 8 89 3.2 6.4 0.00 0.00 0.00 83 1012.5
20260505064540 8 88 3.2 8.0 0.00 0.00 0.00 83 1012.8
20260505064038 8 125 4.8 6.4 0.00 0.00 0.00 83 1012.7
20260505063535 8 123 4.8 6.4 0.00 0.00 0.00 84 1012.8
20260505063031 8 118 6.4 6.4 0.00 0.00 0.00 84 1013.0
20260505062528 8 109 4.8 8.0 0.00 0.00 0.00 85 1012.7
20260505062025 8 128 8.0 9.7 0.00 0.00 0.00 89 1012.7
20260505061523 8 104 3.2 4.8 0.00 0.00 0.00 91 1012.8
20260505061020 8 82 3.2 6.4 0.00 0.00 0.00 91 1012.8
20260505060518 8 107 6.4 6.4 0.00 0.00 0.00 91 1013.0
20260505060014 8 78 3.2 3.2 0.00 0.15 0.15 91 1012.9
20260505055509 8 99 4.8 6.4 0.00 0.15 0.15 91 1012.8
20260505055006 8 116 3.2 6.4 0.00 0.15 0.15 91 1012.9
20260505054504 8 98 4.8 6.4 0.00 0.15 0.15 91 1012.7
20260505054002 8 130 4.8 6.4 0.00 0.15 0.15 91 1012.5
20260505053459 8 68 4.8 6.4 0.00 0.15 0.15 91 1012.8
20260505052955 8 106 3.2 4.8 0.05 0.15 0.15 92 1012.5
20260505052453 8 89 3.2 4.8 0.05 0.15 0.15 91 1012.7
20260505051949 8 118 4.8 4.8 0.05 0.15 0.15 92 1012.8
20260505051446 8 44 0.0 3.2 0.13 0.15 0.15 91 1013.2
20260505050945 8 135 0.0 3.2 0.05 0.13 0.13 91 1013.1
20260505050443 8 97 1.6 3.2 0.05 0.13 0.13 91 1013.0
20260505041410 8 302 3.2 4.8 0.30 0.08 0.08 87 1013.5
20260505040907 9 293 6.4 9.7 0.23 0.05 0.05 84 1013.0
20260505040405 10 284 1.6 8.0 0.18 0.03 0.03 79 1013.1
20260505035901 10 281 6.4 6.4 0.05 0.00 0.00 73 1012.9
20260505035357 11 287 8.0 8.0 0.00 0.00 0.00 69 1012.7
20260505034855 11 352 0.0 4.8 0.00 0.00 0.00 66 1012.9
20260505034351 11 286 1.6 8.0 0.00 0.00 0.00 63 1012.7
20260505033848 11 206 3.2 6.4 0.00 0.00 0.00 62 1012.7
20260505033345 11 198 3.2 6.4 0.00 0.00 0.00 62 1012.7
20260505032843 11 346 3.2 4.8 0.00 0.00 0.00 62 1012.2
20260505032339 11 110 1.6 11.3 0.00 0.00 0.00 62 1012.1
20260505031837 11 113 0.0 3.2 0.00 0.00 0.00 62 1012.1
20260505031333 11 101 3.2 6.4 0.00 0.00 0.00 61 1011.8
20260505030831 11 114 4.8 8.0 0.00 0.00 0.00 61 1011.8
20260505030326 11 62 6.4 8.0 0.00 0.00 0.00 59 1011.7
20260505025822 11 113 4.8 6.4 0.00 0.00 0.00 58 1011.7
20260505025320 11 131 0.0 6.4 0.00 0.00 0.00 57 1011.7
20260505024818 11 142 1.6 4.8 0.00 0.00 0.00 58 1011.2
20260505024315 11 121 3.2 4.8 0.00 0.00 0.00 58 1011.3
20260505023812 11 128 3.2 6.4 0.00 0.00 0.00 58 1011.6
20260505023309 11 187 0.0 4.8 0.00 0.00 0.00 58 1011.6
20260505022807 11 107 3.2 4.8 0.00 0.00 0.00 57 1011.5
20260505022304 11 77 3.2 8.0 0.00 0.00 0.00 57 1011.5
20260505021800 11 108 3.2 6.4 0.00 0.00 0.00 59 1011.5
20260505021257 11 101 4.8 6.4 0.00 0.00 0.00 60 1011.5
20260505020753 11 131 4.8 6.4 0.00 0.00 0.00 59 1011.7
20260505020248 11 122 3.2 4.8 0.00 0.00 0.00 59 1011.5
20260505015746 11 105 8.0 9.7 0.00 0.00 0.00 59 1011.3
20260505015243 11 118 3.2 8.0 0.00 0.00 0.00 60 1011.1
20260505014740 11 96 6.4 11.3 0.00 0.00 0.00 57 1011.0
20260505014237 12 357 4.8 4.8 0.00 0.00 0.00 55 1010.7
20260505013733 12 107 4.8 4.8 0.00 0.00 0.00 52 1010.7
20260505013231 12 92 3.2 6.4 0.00 0.00 0.00 50 1010.7
20260505012729 12 132 4.8 9.7 0.00 0.00 0.00 51 1010.9
20260505012226 12 314 4.8 6.4 0.00 0.00 0.00 51 1011.0
20260505011721 12 349 3.2 16.1 0.00 0.00 0.00 50 1011.0
20260505011219 12 310 3.2 9.7 0.00 0.00 0.00 50 1011.1
20260505010714 12 328 4.8 14.5 0.00 0.00 0.00 51 1010.9
20260505010211 12 46 11.3 14.5 0.00 0.00 0.00 51 1010.9
20260505005707 13 314 4.8 12.9 0.00 0.00 0.00 50 1010.7
20260505005205 13 302 3.2 14.5 0.00 0.00 0.00 46 1011.0
20260505004702 14 324 4.8 19.3 0.00 0.00 0.00 42 1010.6
20260505004158 15 348 3.2 6.4 0.00 0.00 0.00 40 1010.6
20260505003656 15 3 3.2 19.3 0.00 0.00 0.00 39 1010.6
20260505003153 15 343 6.4 14.5 0.00 0.00 0.00 39 1010.4
20260505002649 15 83 0.0 12.9 0.00 0.00 0.00 39 1010.5
20260505002147 15 52 4.8 11.3 0.00 0.00 0.00 39 1010.5
20260505001644 15 279 3.2 14.5 0.00 0.00 0.00 39 1010.3
20260505001142 15 301 3.2 11.3 0.00 0.00 0.00 38 1010.2
20260505000638 15 288 6.4 12.9 0.00 0.00 0.00 38 1009.9
20260505000137 15 292 6.4 17.7 0.00 0.00 0.00 37 1010.0
20260504235632 16 282 9.7 29.0 0.00 0.00 0.00 35 1009.8
20260504235129 16 98 3.2 19.3 0.00 0.00 0.00 31 1009.8
20260504234626 16 207 3.2 14.5 0.00 0.00 0.00 31 1009.8
20260504234124 16 52 14.5 19.3 0.00 0.00 0.00 31 1010.0
20260504233619 16 33 9.7 22.5 0.00 0.00 0.00 30 1009.8
20260504233115 17 27 12.9 16.1 0.00 0.00 0.00 30 1009.7
20260504232613 17 224 4.8 11.3 0.00 0.00 0.00 30 1009.6
20260504232110 17 8 3.2 19.3 0.00 0.00 0.00 30 1009.4
20260504231607 17 312 4.8 9.7 0.00 0.00 0.00 30 1009.7
20260504231103 17 11 6.4 9.7 0.00 0.00 0.00 29 1009.4
20260504230559 17 12 6.4 14.5 0.00 0.00 0.00 29 1009.3
20260504230058 17 49 8.0 17.7 0.00 0.00 0.00 30 1009.2
20260504225555 17 10 3.2 20.9 0.00 0.00 0.00 29 1009.0
20260504225052 18 334 3.2 12.9 0.00 0.00 0.00 28 1009.1
20260504224548 18 299 9.7 27.4 0.00 0.00 0.00 28 1009.0
20260504224046 18 36 0.0 19.3 0.00 0.00 0.00 28 1009.0
20260504223543 17 116 3.2 24.1 0.00 0.00 0.00 28 1009.2
20260504223038 17 288 1.6 17.7 0.00 0.00 0.00 29 1009.0
20260504222535 17 25 11.3 17.7 0.00 0.00 0.00 28 1009.3
20260504222033 17 83 8.0 14.5 0.00 0.00 0.00 28 1009.0
20260504221530 17 342 3.2 25.7 0.00 0.00 0.00 28 1009.1
20260504221027 18 1 6.4 20.9 0.00 0.00 0.00 27 1008.8
20260504220523 18 331 6.4 19.3 0.00 0.00 0.00 26 1008.6
20260504220020 20 42 17.7 20.9 0.00 0.00 0.00 23 1008.6
20260504215516 20 26 8.0 16.1 0.00 0.00 0.00 21 1008.4
20260504215014 20 356 3.2 9.7 0.00 0.00 0.00 21 1008.5
20260504214510 20 32 6.4 11.3 0.00 0.00 0.00 21 1008.7
20260504214006 20 283 3.2 8.0 0.00 0.00 0.00 21 1008.7
20260504213503 20 281 6.4 12.9 0.00 0.00 0.00 20 1008.6
20260504213000 21 307 6.4 9.7 0.00 0.00 0.00 20 1009.0
20260504212456 21 272 3.2 17.7 0.00 0.00 0.00 20 1008.8
20260504211954 22 272 3.2 6.4 0.00 0.00 0.00 19 1008.7
20260504211450 22 281 6.4 11.3 0.00 0.00 0.00 20 1009.2
20260504210948 21 309 3.2 14.5 0.00 0.00 0.00 20 1009.1
20260504210444 21 299 9.7 14.5 0.00 0.00 0.00 20 1009.0
20260504205941 21 267 8.0 14.5 0.00 0.00 0.00 21 1009.1
20260504205439 21 306 8.0 14.5 0.00 0.00 0.00 19 1009.0
20260504204937 21 294 6.4 17.7 0.00 0.00 0.00 21 1009.1
20260504204435 21 286 6.4 11.3 0.00 0.00 0.00 20 1009.2
20260504203934 22 349 6.4 17.7 0.00 0.00 0.00 20 1009.2
20260504203431 22 309 4.8 14.5 0.00 0.00 0.00 21 1009.3
20260504202927 22 335 3.2 12.9 0.00 0.00 0.00 20 1009.2
20260504202423 22 282 9.7 14.5 0.00 0.00 0.00 19 1009.2
20260504201920 22 321 4.8 8.0 0.00 0.00 0.00 19 1009.3
20260504201418 22 283 4.8 12.9 0.00 0.00 0.00 19 1009.3
20260504200915 22 315 3.2 9.7 0.00 0.00 0.00 21 1009.2
20260504200412 22 296 6.4 9.7 0.00 0.00 0.00 20 1009.3
20260504195908 22 302 4.8 17.7 0.00 0.00 0.00 20 1009.3
20260504195404 22 31 3.2 9.7 0.00 0.00 0.00 19 1009.3
20260504194901 22 279 6.4 6.4 0.00 0.00 0.00 20 1009.4
20260504194356 21 288 6.4 11.3 0.00 0.00 0.00 20 1009.4
20260504193853 21 271 3.2 19.3 0.00 0.00 0.00 22 1009.4
20260504193350 20 319 4.8 6.4 0.00 0.00 0.00 23 1009.7
20260504192849 20 278 6.4 9.7 0.00 0.00 0.00 23 1009.7
20260504192346 19 285 6.4 14.5 0.00 0.00 0.00 23 1009.6
20260504191844 19 312 3.2 11.3 0.00 0.00 0.00 23 1009.8
20260504191342 18 291 9.7 14.5 0.00 0.00 0.00 23 1009.8
20260504190837 18 315 8.0 16.1 0.00 0.00 0.00 23 1009.7
20260504190333 19 252 8.0 22.5 0.00 0.00 0.00 21 1009.8
20260504185830 20 304 4.8 16.1 0.00 0.00 0.00 21 1009.6
20260504185327 20 304 9.7 9.7 0.00 0.00 0.00 21 1009.4
20260504184823 20 358 3.2 11.3 0.00 0.00 0.00 20 1009.4
20260504184319 20 27 3.2 6.4 0.00 0.00 0.00 20 1009.4
20260504183815 20 346 0.0 8.0 0.00 0.00 0.00 21 1009.7
20260504183312 20 285 6.4 6.4 0.00 0.00 0.00 19 1009.3
20260504182810 21 271 11.3 11.3 0.00 0.00 0.00 19 1009.7
20260504182308 20 342 0.0 8.0 0.00 0.00 0.00 20 1009.4
20260504181805 21 328 6.4 14.5 0.00 0.00 0.00 19 1009.7
20260504181302 21 287 4.8 9.7 0.00 0.00 0.00 19 1009.6
20260504180801 21 331 4.8 16.1 0.00 0.00 0.00 18 1009.7
20260504180259 21 288 3.2 9.7 0.00 0.00 0.00 18 1009.7
20260504175756 21 295 3.2 6.4 0.00 0.00 0.00 18 1009.4
20260504175253 21 310 3.2 14.5 0.00 0.00 0.00 18 1009.6
20260504174751 22 290 4.8 12.9 0.00 0.00 0.00 18 1009.8
20260504174249 23 310 6.4 11.3 0.00 0.00 0.00 19 1009.8
20260504173745 22 155 3.2 4.8 0.00 0.00 0.00 18 1010.0
20260504173242 22 347 4.8 9.7 0.00 0.00 0.00 18 1010.4
20260504172739 22 311 3.2 14.5 0.00 0.00 0.00 20 1009.9
20260504172235 22 293 4.8 11.3 0.00 0.00 0.00 20 1009.8
20260504171731 22 287 6.4 12.9 0.00 0.00 0.00 19 1010.3
20260504171229 22 337 3.2 8.0 0.00 0.00 0.00 20 1010.3
20260504170725 21 301 4.8 9.7 0.00 0.00 0.00 20 1010.3
20260504170223 21 286 8.0 17.7 0.00 0.00 0.00 20 1010.3
20260504160141 20 251 6.4 12.9 0.00 0.00 0.00 22 1010.9
20260504151108 18 315 6.4 9.7 0.00 0.00 0.00 24 1011.1
20260504150606 18 299 4.8 8.0 0.00 0.00 0.00 24 1011.2
20260504150103 17 232 4.8 6.4 0.00 0.00 0.00 25 1011.2